Location: Oriwa
(40.7500°S, 175.3333°E)
Time: 11:23:53
(UTC+00:00)

Daily predictions for brighter satellites

Satellite Brightness Start Highest point End
(mag) Time Altitude Azimuth Time Altitude Azimuth Time Altitude Azimuth
NOSS 3-1 (C) 3.7 12:00:31 10° SSW 12:05:53 58° S 12:05:53 58° S
Cosmos 1833 Rocket 3.9 12:03:14 10° SW 12:06:56 33° WSW 12:06:56 33° WSW
Cosmos 2285 Rocket 4.2 12:09:15 68° SW 12:09:15 68° SW 12:15:09 10° SSE
Cosmos 2369 Rocket 4.1 12:22:08 20° ESE 12:22:08 20° ESE 12:24:39 10° SE
ADEOS II 4.0 12:23:37 21° ESE 12:23:49 21° ESE 12:27:44 10° SSE
USA 215 4.5 12:20:53 10° SE 12:26:53 38° SSW 12:32:51 10° W
Terra 4.5 12:31:55 10° SW 12:33:09 11° WSW 12:33:59 10° WSW
NOSS 3-1 (A) 3.8 12:35:12 10° SSW 12:40:39 57° S 12:40:39 57° S
Cosmos 1943 Rocket 2.9 12:45:27 50° SSW 12:45:27 50° SSW 12:49:46 10° SSE
Resurs 1-4 Rocket 2.9 12:46:47 48° SSE 12:46:47 48° SSE 12:51:00 10° S
ATLAS 3B R/B 4.0 12:47:11 10° SW 12:50:25 25° WSW 12:50:25 25° WSW
USA 267 3.8 13:02:38 46° WSW 13:02:38 46° WSW 13:07:21 10° SW
CZ-2D R/B 2.8 13:09:42 50° S 13:09:42 50° S 13:13:34 10° SSW
IDEFIX/ARIANE 42P 3.3 13:09:26 49° SSE 13:09:26 49° SSE 13:13:38 10° S
Cosmos 2123 Rocket 4.5 13:06:05 10° SSW 13:11:19 51° WSW 13:11:19 51° WSW
Lacrosse 4 Rocket 3.6 13:23:59 23° SSE 13:23:59 23° SSE 13:25:38 10° SSE
Cosmos 2297 4.3 13:23:51 52° SSW 13:23:51 52° SSW 13:28:40 10° SSE
Thor Agena Rocket 4.3 13:24:51 50° SSW 13:24:51 50° SSW 13:28:39 10° SSW
Cosmos 2098 Rocket 4.4 13:17:04 10° SSW 13:22:44 53° SW 13:22:44 53° SW
ISS -0.4 13:30:49 12° SSE 13:30:49 12° SSE 13:31:13 10° SE
NPP 4.4 13:31:38 47° SW 13:31:38 47° SW 13:35:36 10° SSW
ASTEX 1 4.4 13:26:51 10° S 13:30:18 44° SSW 13:30:18 44° SSW
Cosmos 1459 Rocket 4.4 13:35:09 50° E 13:35:15 50° E 13:41:08 10° SSE
Cosmos 2082 Rocket 4.3 13:32:51 10° SW 13:34:18 15° WSW 13:34:18 15° WSW
Lacrosse 5 rocket 3.1 13:42:27 32° SSW 13:42:27 32° SSW 13:45:57 10° SSE
MOS 1 Rocket 4.4 13:46:17 10° S 13:49:07 39° S 13:49:07 39° S
Cosmos 2100 Rocket 4.0 13:52:35 76° ENE 13:52:51 77° E 13:59:20 10° S
BREEZE-M DEB (TANK) 4.1 14:01:50 41° NE 14:02:06 41° ENE 14:13:51 10° ESE
Cosmos 1802 Rocket 4.1 14:02:28 62° NE 14:03:03 66° E 14:09:18 10° SSE
ADEOS II 3.0 14:04:32 40° SW 14:04:32 40° SW 14:08:16 10° SSW
GEOS 3 Rocket 4.2 13:58:37 10° SSE 14:03:25 46° SW 14:03:25 46° SW
Cosmos 2369 Rocket 2.8 14:03:54 47° WSW 14:03:54 47° WSW 14:09:21 10° SSE
USA 229 DEB 3.9 13:57:25 10° SW 14:02:30 48° WSW 14:02:30 48° WSW
USA 229 3.9 13:57:27 10° SW 14:02:38 50° WSW 14:02:38 50° WSW
Cosmos 2112 Rocket 4.3 14:08:25 65° SSW 14:08:25 65° SSW 14:13:20 10° SSE
ATLAS 5 CENTAUR R/B 3.6 14:09:56 37° NE 14:11:28 41° ENE 14:18:11 10° SE
Cosmos 1371 Rocket 4.0 14:08:50 10° SSW 14:13:51 78° SSE 14:13:51 78° SSE
MSX 4.5 14:15:36 43° WSW 14:15:36 43° WSW 14:20:14 10° SSW
Cosmos 1680 Rocket 4.1 14:18:47 47° SW 14:18:47 47° SW 14:23:40 10° S
SL-4 R/B 3.9 14:22:52 27° ENE 14:22:52 27° ENE 14:25:49 10° ESE
BlueWalker 3 4.4 14:24:24 16° E 14:24:24 16° E 14:25:43 10° E
ALOS 2.6 14:23:45 58° E 14:24:01 59° ESE 14:28:40 10° S
Resurs 1-4 Rocket 4.2 14:27:51 15° WSW 14:27:51 15° WSW 14:29:29 10° SW
Okean 3 4.1 14:26:42 52° SE 14:26:42 52° SE 14:30:12 10° SSE
Cosmos 1674 4.2 14:27:03 33° ESE 14:27:03 33° ESE 14:29:45 10° SSE
Cosmos 2056 Rocket 3.5 14:23:27 10° SSW 14:28:42 77° WSW 14:28:42 77° WSW
Meteor 1-22 Rocket 4.3 14:23:34 10° S 14:29:06 69° E 14:30:04 56° NE
BREEZE-M DEB (TANK) 4.3 14:34:21 39° WSW 14:35:52 55° SSW 14:48:48 10° ESE
Cosmos 1703 Rocket 3.8 14:36:10 69° ESE 14:36:10 69° ESE 14:40:32 10° SSE
Cosmos 1908 Rocket 3.7 14:33:43 10° S 14:37:55 71° SE 14:37:55 71° SE
Cosmos 2016 Rocket 3.9 14:40:44 62° NW 14:41:44 75° W 14:47:55 10° S
In-Cosmos 22 4.2 14:42:31 56° NNE 14:43:37 72° E 14:49:16 10° SSE
Cosmos 1271 Rocket 3.7 14:40:47 10° S 14:43:20 41° S 14:43:20 41° S
MOZ.5/SAFIR/RUBIN 5/SL-8 3.8 14:43:22 10° S 14:48:07 69° WSW 14:48:09 69° WSW
FENGYUN 3A 3.7 14:51:51 55° WNW 14:51:57 55° W 14:57:22 10° SSW
Cosmos 1626 2.8 14:56:06 47° SSW 14:56:06 47° SSW 14:58:54 10° S
Meteor 1-21 4.2 14:59:12 45° N 15:00:59 79° E 15:06:40 10° SSE
Meteor 1-23 Rocket 4.5 15:00:50 46° W 15:01:34 48° WSW 15:07:00 10° S
Cosmos 1782 Rocket 3.6 14:59:57 10° S 15:04:24 75° E 15:05:22 52° NNE
ISS -0.8 15:04:05 10° SW 15:05:51 13° S 15:07:39 10° SSE
Okean 1-7 3.6 15:07:03 43° WSW 15:07:03 43° WSW 15:11:07 10° S
PAYLOAD A 4.0 15:05:24 41° N 15:07:23 80° WNW 15:12:56 10° SSW
Cosmos 1452 Rocket 3.6 15:05:08 10° SSW 15:10:29 76° ESE 15:14:50 15° NNE
ARIANE 5 R/B 3.3 15:05:43 10° NE 15:10:36 51° ESE 15:15:37 10° S
IRS-1D 4.4 15:13:00 32° W 15:13:00 32° W 15:16:52 10° SSW
Cosmos 1484 Rocket 4.0 15:11:29 16° NE 15:13:59 38° ESE 15:17:29 10° S
SL-27 R/B 2.5 15:10:59 10° SSW 15:14:11 67° SE 15:14:11 67° SE
Cosmos 192 4.3 15:12:10 10° SSW 15:17:09 84° ESE 15:20:39 19° NNE
SL-16 R/B 2.8 15:12:26 10° SSE 15:18:41 65° ENE 15:22:35 24° N
CBERS-1 4.1 15:18:08 46° NW 15:19:11 54° W 15:24:18 10° SSW
BREEZE-M DEB (TANK) 4.3 15:19:03 13° SW 15:21:00 23° S 15:25:20 10° ESE
Lacrosse 5 rocket 4.3 15:19:53 10° SW 15:21:55 13° SSW 15:23:58 10° SSE
Cosmos 1908 3.0 15:18:56 10° S 15:22:45 75° W 15:23:03 70° NW
Cosmos 1707 4.0 15:23:38 27° WSW 15:23:38 27° WSW 15:26:35 10° SSW
Timation 1 Rocket 4.3 15:17:44 10° SSW 15:23:40 61° WNW 15:27:34 21° N
UNK 3.9 15:22:24 10° SSE 15:27:03 69° ENE 15:29:16 30° N
CZ-2C R/B 2.6 15:29:46 41° WNW 15:30:12 43° W 15:34:40 10° SSW
Meteor 2-14 Rocket 4.4 15:35:02 10° S 15:41:17 84° W 15:47:26 10° N
Cosmos 2297 Rocket 3.0 15:38:45 10° SSW 15:44:22 54° ESE 15:49:55 10° NE
SAR-Lupe-2 4.2 15:44:37 37° W 15:44:37 37° W 15:47:53 10° SSW
Cosmos 1464 Rocket 4.2 15:43:27 12° N 15:49:18 77° E 15:55:43 10° S
Cosmos 2227 Rocket 3.7 15:46:28 10° S 15:51:48 39° ESE 15:57:05 10° NE
YAOGAN 6 2.6 15:53:15 34° NNW 15:54:25 53° W 15:57:52 10° SSW
Cosmos 1953 2.5 15:50:18 10° S 15:54:26 75° E 15:58:27 10° NNE
Cosmos 1110 Rocket 4.1 15:50:35 10° SSW 15:55:49 59° WNW 16:01:01 10° N
ATLAS 5 CENTAUR R/B 3.3 15:51:19 22° WNW 15:56:07 51° SW 16:03:00 10° SSE
Sich 1 Rocket 3.7 15:51:47 10° S 15:56:16 77° E 16:00:40 10° NNE
Tiangong -2.0 15:55:52 42° WNW 15:56:34 53° NNW 15:59:45 10° ENE
Cosmos 2151 Rocket 4.1 15:52:21 10° S 15:56:49 61° E 16:01:11 10° NNE
CZ-2C R/B 3.0 15:53:16 16° N 15:57:03 54° W 16:01:49 10° SSW
Meteor 1-28 Rocket 3.8 15:55:27 10° S 15:58:58 40° WSW 16:00:12 29° WNW
Cosmos 1758 4.3 15:57:11 10° SSW 16:00:34 26° W 16:01:08 25° WNW
SL-4 R/B 2.7 15:58:10 23° WNW 16:00:57 56° SSW 16:05:35 10° SE
BlueWalker 3 2.3 15:59:11 28° WNW 16:01:07 59° SW 16:05:05 10° SE
ALOS 4.1 16:02:12 14° W 16:02:12 14° W 16:04:10 10° WSW
CZ-2D R/B 3.5 15:57:35 10° N 16:01:59 73° WNW 16:06:29 10° SSW
COSMOS 2455 4.2 15:59:54 10° N 16:05:17 35° ENE 16:10:43 10° SE
Cosmos 1656 3.8 16:03:18 22° NW 16:07:00 61° WSW 16:12:42 10° SSE
PSLV R/B 4.3 16:06:46 10° NNE 16:10:51 54° ESE 16:15:02 10° S
Cosmos 1980 Rocket 3.9 16:06:15 10° NNE 16:11:07 31° ENE 16:16:00 10° SE
Cosmos 2221 Rocket 3.6 16:08:26 15° NNW 16:12:14 74° W 16:16:48 10° S
Cosmos 44 3.9 16:09:43 13° NNW 16:14:28 62° ENE 16:19:41 10° SE
Envisat 3.5 16:10:43 13° NNW 16:14:59 39° W 16:19:49 10° SSW
Cosmos 1697 Rocket 2.9 16:10:35 11° NNW 16:16:03 72° ENE 16:21:43 10° SSE
Cosmos 2034 Rocket 4.1 16:10:24 10° N 16:16:42 86° E 16:23:01 10° S
Cosmos 1378 Rocket 3.5 16:14:15 11° NNW 16:18:22 77° W 16:22:49 10° S
Cosmos 2219 4.4 16:13:05 10° SSW 16:18:42 48° ESE 16:24:16 10° NE
YAOGAN 11 4.2 16:14:38 10° SSE 16:19:10 89° WSW 16:23:42 10° NNW
Meteor 1-29 4.3 16:16:39 10° NE 16:19:40 40° ESE 16:22:44 10° S
H-2A R/B 2.7 16:17:09 10° N 16:20:52 57° W 16:24:38 10° SSW
CZ-2C R/B 3.9 16:17:49 10° SSE 16:22:47 40° E 16:27:38 10° NNE
USA 281 4.2 16:18:56 10° SE 16:25:17 47° ENE 16:31:33 10° N
Helios 1B rocket 3.2 16:22:51 12° NNW 16:26:07 31° W 16:29:51 10° SSW
ATLAS CENTAUR R/B 2.4 16:26:18 10° N 16:29:31 34° ENE 16:32:53 10° SE
Meteor 2-15 Rocket 4.5 16:29:11 10° NNW 16:35:21 74° W 16:41:36 10° S
Okean 2 Rocket 3.4 16:31:27 10° SSW 16:35:47 46° W 16:40:06 10° NNW
CZ-2C R/B 2.8 16:37:48 10° NNE 16:41:44 84° WNW 16:45:41 10° SSW
Cosmos 1300 3.8 16:38:35 10° SSW 16:41:46 25° W 16:44:55 10° NNW
ISS -0.9 16:41:09 10° SSW 16:43:37 18° SSE 16:46:04 10° ESE
Cosmos 1634 Rocket 4.4 16:38:26 10° N 16:44:38 70° E 16:51:00 10° SSE
Cosmos 1269 Rocket 4.1 16:40:30 10° NNW 16:45:46 64° WSW 16:51:06 10° SSE
Cosmos 1092 Rocket 4.2 16:42:22 10° S 16:48:47 85° E 16:55:09 10° N
ARIANE 5 R/B 3.9 16:46:30 10° NW 16:49:59 18° W 16:53:30 10° SW
Cosmos 1455 2.5 16:47:12 10° S 16:50:56 67° E 16:54:36 10° NNE
Cosmos 1455 Rocket 4.4 16:47:44 10° S 16:52:06 46° ESE 16:56:24 10° NNE
USA 290 4.3 16:49:41 10° NNE 16:52:32 28° ENE 16:55:25 10° SE
H-2A R/B 2.6 16:48:37 10° NNE 16:53:45 65° ESE 16:58:48 10° S
Cosmos 2195 Rocket 4.5 16:53:36 10° S 16:59:47 74° W 17:05:54 10° N
Meteor 1-24 Rocket 3.8 16:55:24 10° N 17:01:04 83° W 17:07:02 10° S
SL-16 R/B 3.9 16:57:07 10° SSW 17:01:41 22° WSW 17:06:13 10° WNW
